ARIANE 5 R/B, 39218

Orbit data source: Space-Track

ARIANE 5 R/B, 39218 is space debris in HEO originally from a launch on Thu, 25 Jul 2013 UTC launched from the French Guiana (FRGUI). Debris objects in space refer to the collection of defunct objects orbiting the Earth. Examples of debris include non-operational satellites, rocket bodies, and fragments generated from explosions, collisions, or faulty payload assembly.

Loading next visibility...
Identifier
39218, 2013-038D
Orbit
HEO
Country
Flag of FRFR
Related business
Manufacturer
EADS/Bremen
Mission
Spacecraft
Bus & Motor
SYLDA 5, Unknown motor
Mass
440 kg wet, 440 kg dry
Launch date (UTC)
2013-07-25 (12 years ago)
Launch vehicle
Unknown
Launch site
French Guiana (FRGUI)
Object type
Payload
Rocket body
Debris
Shape & HBR
Cyl, 2.9 m
Radar Cross Section
28.451 m², Large (>1 m²)

Expand to show TLE details & history
Last TLE update: 15 hours ago

TLE from 15 hours ago
0 ARIANE 5 R/B
1 39218U 13038D   25245.96644142  .00009109  00000-0  94266-3 0  9991
2 39218   3.3540  27.3480 6621254 241.8637  37.8167  3.17501309116000
Epoch: 2025-09-02T23:11Z
TLE epoch observation values (Epoch: 2025-09-02T23:11:40.538Z)
Latitude
0.00003°
Longitude
57.33928°
Altitude
9,650.447 km
Speed
5.417 km/s
True Right ascension
01h 50m 25s
True Declination
0° 00' 00"
Sunlit
Object was in daylight at epoch
Visualization orbit readout
Latitude
Unknown
Longitude
Unknown
Altitude
Unknown
Speed
Unknown
Apparent Right ascension
Unknown
Apparent Declination
Unknown
Sunlit
N/A
Visualization observer readout
Local Sidereal Time
06:22:57
Azimuth
Unknown
Elevation
Unknown
Doppler factor
Unknown
Orbital elements
Apogee altitude
26,132.125 km
Perigee altitude
230.505 km
Semi-major axis
19,559.452 km
Eccentricity
0.66213
Inclination
3.354°
RAAN
27.348°
Arg. of periapsis
241.8637°
True anomaly
118.53144°
Mean anomaly
37.8167°
Eccentric anomaly
74.34668°
Mean motion
0.79343 °/min
Orbital period
453.73 mins
BSTAR
0.00094266
Loading maneuver chart data...
Computing Atmospheric mass density...
Loading historical data...
Loading historical data...
Loading historical data...
Loading historical data...
Loading historical data...
Loading historical data...
Loading historical data...
Other satellites on launch #38 in the year 2013 (2013-07-25 UTC)

Documentation

Showing up to 5 results
|